sat.trackr.live / text

‹ back to catalog

2025-292D

NORAD 66996 · 2025-292D

PAYLOAD ACTIVE UNKNOWN

§ Identity

Operator
Country
PRC
Launch date
2025-12-10
Launch site
JSC
Launch vehicle
Mass (kg)
RCS (m²)

External: N2YO · Heavens-Above · Gunter

§ Orbital elements

Epoch: 2026-09-20T21:59:52.371168Z

Period
95.58 min
Inclination
97.6239°
Eccentricity
0.0014952
Mean motion
15.06518885 rev/d
Perigee alt
536.5 km
Apogee alt
557.2 km
Semi-major
6,925.0 km
B*
7.8286e-5
RAAN
338.6269°
Arg perigee
40.9904°
Mean anomaly
319.2444°
Rev number
4,285

§ Raw data

2025-292D1 66996U 25292D   26263.91657837  .00001097  00000+0  78286-4 0  99922 66996  97.6239 338.6269 0014952  40.9904 319.2444 15.06518885 42851

JSON: /api/v1/satellites/66996 · /tle

For live sub-satellite position, see the globe view (requires WebGL).

§ Visibility from observer

Set your observer location to see the next 7 days of passes ≥ 10°. The values pass through the URL so the page stays shareable.

No JS? Fill the form by hand. The geolocation button needs JavaScript.